| time (UTC) | temp F | wind direction | speed MPH | gust MPH | rain 1hr in | rain 24hr in | rain mn in | humidity % | barometer mb |
| 20260901115525 | 55 | 174 | 1.0 | 12.0 | 0.00 | 0.00 | 0.00 | 83 | 1017.0 |
| 20260901115029 | 55 | 243 | 3.0 | 12.0 | 0.00 | 0.00 | 0.00 | 83 | 1016.9 |
| 20260901114529 | 54 | 146 | 2.0 | 13.0 | 0.00 | 0.00 | 0.00 | 83 | 1016.8 |
| 20260901114025 | 54 | 232 | 3.0 | 13.0 | 0.00 | 0.00 | 0.00 | 83 | 1016.9 |
| 20260901113527 | 54 | 189 | 6.0 | 17.0 | 0.00 | 0.00 | 0.00 | 83 | 1017.1 |
| 20260901113023 | 54 | 187 | 7.0 | 17.0 | 0.00 | 0.00 | 0.00 | 83 | 1017.1 |
| 20260901112519 | 54 | 180 | 6.0 | 17.0 | 0.00 | 0.00 | 0.00 | 83 | 1017.2 |
| 20260901112019 | 54 | 203 | 5.0 | 14.0 | 0.00 | 0.00 | 0.00 | 84 | 1017.3 |
| 20260901111521 | 54 | 218 | 6.0 | 16.0 | 0.00 | 0.00 | 0.00 | 84 | 1017.4 |
| 20260901111018 | 54 | 195 | 5.0 | 14.0 | 0.00 | 0.00 | 0.00 | 83 | 1017.4 |
| 20260901110519 | 54 | 183 | 7.0 | 16.0 | 0.00 | 0.00 | 0.00 | 83 | 1017.4 |
| 20260901110016 | 54 | 172 | 6.0 | 16.0 | 0.00 | 0.00 | 0.00 | 83 | 1017.5 |
| 20260901105516 | 54 | 211 | 6.0 | 16.0 | 0.00 | 0.00 | 0.00 | 83 | 1017.5 |
| 20260901105014 | 55 | 193 | 6.0 | 16.0 | 0.00 | 0.00 | 0.00 | 83 | 1017.4 |
| 20260901104514 | 55 | 235 | 4.0 | 12.0 | 0.00 | 0.00 | 0.00 | 84 | 1017.4 |
| 20260901104018 | 55 | 215 | 4.0 | 14.0 | 0.00 | 0.00 | 0.00 | 83 | 1017.3 |
| 20260901103512 | 55 | 244 | 5.0 | 18.0 | 0.00 | 0.00 | 0.00 | 82 | 1017.2 |
| 20260901103013 | 55 | 253 | 6.0 | 18.0 | 0.00 | 0.00 | 0.00 | 82 | 1017.2 |
| 20260901102515 | 55 | 295 | 3.0 | 10.0 | 0.00 | 0.00 | 0.00 | 82 | 1017.2 |
| 20260901102014 | 55 | 296 | 3.0 | 8.0 | 0.00 | 0.00 | 0.00 | 83 | 1017.1 |
| 20260901101512 | 54 | 184 | 1.0 | 10.0 | 0.00 | 0.00 | 0.00 | 83 | 1017.1 |
| 20260901101011 | 54 | 192 | 4.0 | 12.0 | 0.00 | 0.00 | 0.00 | 84 | 1017.1 |
| 20260901100514 | 54 | 216 | 5.0 | 12.0 | 0.00 | 0.00 | 0.00 | 82 | 1017.0 |
| 20260901100009 | 54 | 192 | 6.0 | 15.0 | 0.00 | 0.00 | 0.00 | 82 | 1016.9 |
| 20260901095508 | 54 | 202 | 6.0 | 14.0 | 0.00 | 0.00 | 0.00 | 82 | 1016.9 |
| 20260901095013 | 54 | 187 | 6.0 | 15.0 | 0.00 | 0.00 | 0.00 | 82 | 1016.9 |
| 20260901094507 | 54 | 222 | 3.0 | 14.0 | 0.00 | 0.00 | 0.00 | 83 | 1016.8 |
| 20260901094005 | 54 | 226 | 5.0 | 12.0 | 0.00 | 0.00 | 0.00 | 82 | 1016.7 |
| 20260901093508 | 54 | 191 | 3.0 | 13.0 | 0.00 | 0.00 | 0.00 | 82 | 1016.8 |
| 20260901093016 | 54 | 213 | 3.0 | 13.0 | 0.00 | 0.00 | 0.00 | 82 | 1016.8 |
| 20260901092506 | 54 | 207 | 6.0 | 13.0 | 0.00 | 0.00 | 0.00 | 81 | 1016.8 |
| 20260901092005 | 54 | 240 | 5.0 | 14.0 | 0.00 | 0.00 | 0.00 | 82 | 1016.7 |
| 20260901091504 | 54 | 205 | 5.0 | 14.0 | 0.00 | 0.00 | 0.00 | 81 | 1016.7 |
| 20260901091005 | 54 | 190 | 4.0 | 12.0 | 0.00 | 0.00 | 0.00 | 81 | 1016.7 |
| 20260901090502 | 54 | 217 | 3.0 | 12.0 | 0.00 | 0.00 | 0.00 | 81 | 1016.6 |
| 20260901090006 | 55 | 192 | 1.0 | 10.0 | 0.00 | 0.00 | 0.00 | 82 | 1016.6 |
| 20260901085502 | 55 | 182 | 2.0 | 10.0 | 0.00 | 0.00 | 0.00 | 81 | 1016.7 |
| 20260901085100 | 55 | 257 | 2.0 | 10.0 | 0.00 | 0.00 | 0.00 | 81 | 1016.8 |
| 20260901084605 | 55 | 222 | 1.0 | 11.0 | 0.00 | 0.00 | 0.00 | 83 | 1016.8 |
| 20260901084100 | 55 | 182 | 3.0 | 17.0 | 0.00 | 0.00 | 0.00 | 83 | 1016.8 |
| 20260901083559 | 55 | 219 | 3.0 | 11.0 | 0.00 | 0.00 | 0.00 | 83 | 1016.8 |
| 20260901082602 | 55 | 228 | 4.0 | 13.0 | 0.00 | 0.00 | 0.00 | 82 | 1016.7 |
| 20260901082058 | 55 | 175 | 3.0 | 14.0 | 0.00 | 0.00 | 0.00 | 82 | 1016.6 |
| 20260901081610 | 55 | 196 | 2.0 | 11.0 | 0.00 | 0.00 | 0.00 | 83 | 1016.7 |
| 20260901081056 | 55 | 215 | 4.0 | 14.0 | 0.00 | 0.00 | 0.00 | 82 | 1016.7 |
| 20260901080555 | 55 | 234 | 3.0 | 10.0 | 0.00 | 0.00 | 0.00 | 83 | 1016.7 |
| 20260901080057 | 55 | 207 | 4.0 | 10.0 | 0.00 | 0.00 | 0.00 | 83 | 1016.5 |
| 20260901075554 | 55 | 248 | 2.0 | 13.0 | 0.00 | 0.00 | 0.00 | 82 | 1016.4 |
| 20260901075053 | 55 | 217 | 2.0 | 13.0 | 0.00 | 0.00 | 0.00 | 82 | 1016.4 |
| 20260901074554 | 55 | 268 | 3.0 | 15.0 | 0.00 | 0.00 | 0.00 | 81 | 1016.4 |
| 20260901074055 | 55 | 260 | 2.0 | 14.0 | 0.00 | 0.00 | 0.00 | 81 | 1016.4 |
| 20260901073553 | 55 | 240 | 1.0 | 14.0 | 0.00 | 0.00 | 0.00 | 82 | 1016.5 |
| 20260901072552 | 55 | 201 | 4.0 | 17.0 | 0.00 | 0.00 | 0.00 | 80 | 1016.3 |
| 20260901072054 | 55 | 214 | 5.0 | 17.0 | 0.00 | 0.00 | 0.00 | 81 | 1016.4 |
| 20260901071553 | 55 | 233 | 3.0 | 11.0 | 0.00 | 0.00 | 0.00 | 80 | 1016.4 |
| 20260901071052 | 55 | 217 | 3.0 | 11.0 | 0.00 | 0.00 | 0.00 | 79 | 1016.3 |
| 20260901070553 | 55 | 177 | 3.0 | 13.0 | 0.00 | 0.00 | 0.00 | 79 | 1016.3 |
| 20260901070058 | 55 | 224 | 6.0 | 13.0 | 0.00 | 0.00 | 0.00 | 78 | 1016.3 |
| 20260901065551 | 55 | 224 | 2.0 | 10.0 | 0.00 | 0.00 | 0.00 | 78 | 1016.3 |
| 20260901065046 | 56 | 267 | 1.0 | 9.0 | 0.00 | 0.00 | 0.00 | 79 | 1016.3 |
| 20260901064546 | 56 | 281 | 2.0 | 13.0 | 0.00 | 0.00 | 0.00 | 78 | 1016.4 |
| 20260901064046 | 56 | 215 | 4.0 | 22.0 | 0.00 | 0.00 | 0.00 | 78 | 1016.3 |
| 20260901063547 | 56 | 257 | 3.0 | 22.0 | 0.00 | 0.00 | 0.00 | 79 | 1016.4 |
| 20260901063012 | 56 | 338 | 3.0 | 11.0 | 0.00 | 0.00 | 0.00 | 78 | 1016.4 |
| 20260901062506 | 56 | 203 | 2.0 | 14.0 | 0.00 | 0.00 | 0.00 | 78 | 1016.4 |
| 20260901062007 | 56 | 247 | 3.0 | 14.0 | 0.00 | 0.00 | 0.00 | 77 | 1016.3 |
| 20260901061506 | 56 | 208 | 2.0 | 10.0 | 0.00 | 0.00 | 0.00 | 78 | 1016.4 |
| 20260901061004 | 56 | 192 | 3.0 | 10.0 | 0.00 | 0.00 | 0.00 | 77 | 1016.3 |
| 20260901060504 | 56 | 211 | 0.0 | 10.0 | 0.00 | 0.00 | 0.00 | 77 | 1016.3 |
| 20260901060002 | 57 | 173 | 2.0 | 15.0 | 0.00 | 0.00 | 0.00 | 76 | 1016.3 |
| 20260901055502 | 57 | 233 | 4.0 | 15.0 | 0.00 | 0.00 | 0.00 | 75 | 1016.4 |
| 20260901055001 | 57 | 230 | 3.0 | 14.0 | 0.00 | 0.00 | 0.00 | 75 | 1016.4 |
| 20260901054601 | 57 | 204 | 1.0 | 13.0 | 0.00 | 0.00 | 0.00 | 74 | 1016.5 |
| 20260901054100 | 58 | 176 | 3.0 | 15.0 | 0.00 | 0.00 | 0.00 | 74 | 1016.3 |
| 20260901053603 | 58 | 190 | 1.0 | 15.0 | 0.00 | 0.00 | 0.00 | 74 | 1016.4 |
| 20260901052537 | 58 | 186 | 2.0 | 13.0 | 0.00 | 0.00 | 0.00 | 72 | 1016.5 |
| 20260901052035 | 59 | 233 | 5.0 | 13.0 | 0.00 | 0.00 | 0.00 | 72 | 1016.6 |
| 20260901051534 | 59 | 243 | 4.0 | 11.0 | 0.00 | 0.00 | 0.00 | 71 | 1016.5 |
| 20260901051036 | 60 | 185 | 1.0 | 14.0 | 0.00 | 0.00 | 0.00 | 71 | 1016.5 |
| 20260901050532 | 60 | 244 | 4.0 | 14.0 | 0.00 | 0.00 | 0.00 | 70 | 1016.4 |
| 20260901050031 | 60 | 182 | 3.0 | 11.0 | 0.00 | 0.00 | 0.00 | 69 | 1016.3 |
| 20260901045530 | 60 | 238 | 2.0 | 11.0 | 0.00 | 0.00 | 0.00 | 69 | 1016.3 |
| 20260901045031 | 60 | 182 | 2.0 | 11.0 | 0.00 | 0.00 | 0.00 | 69 | 1016.3 |
| 20260901044536 | 61 | 198 | 4.0 | 10.0 | 0.00 | 0.00 | 0.00 | 68 | 1016.2 |
| 20260901044029 | 61 | 217 | 4.0 | 10.0 | 0.00 | 0.00 | 0.00 | 69 | 1016.1 |
| 20260901043529 | 61 | 211 | 2.0 | 13.0 | 0.00 | 0.00 | 0.00 | 69 | 1016.0 |
| 20260901042532 | 61 | 217 | 2.0 | 13.0 | 0.00 | 0.00 | 0.00 | 69 | 1015.8 |
| 20260901042034 | 61 | 224 | 3.0 | 14.0 | 0.00 | 0.00 | 0.00 | 67 | 1015.7 |
| 20260901041529 | 61 | 232 | 2.0 | 14.0 | 0.00 | 0.00 | 0.00 | 68 | 1015.6 |
| 20260901041028 | 61 | 215 | 2.0 | 13.0 | 0.00 | 0.00 | 0.00 | 69 | 1015.6 |
| 20260901040529 | 62 | 189 | 4.0 | 15.0 | 0.00 | 0.00 | 0.00 | 67 | 1015.6 |
| 20260901040028 | 62 | 199 | 6.0 | 19.0 | 0.00 | 0.00 | 0.00 | 66 | 1015.6 |
| 20260901035529 | 62 | 192 | 8.0 | 19.0 | 0.00 | 0.00 | 0.00 | 66 | 1015.4 |
| 20260901035029 | 62 | 205 | 6.0 | 16.0 | 0.00 | 0.00 | 0.00 | 66 | 1015.4 |
| 20260901034531 | 63 | 224 | 7.0 | 18.0 | 0.00 | 0.00 | 0.00 | 65 | 1015.2 |
| 20260901034029 | 63 | 165 | 6.0 | 18.0 | 0.00 | 0.00 | 0.00 | 66 | 1015.1 |
| 20260901033527 | 63 | 213 | 9.0 | 18.0 | 0.00 | 0.00 | 0.00 | 65 | 1015.0 |
| 20260901032531 | 64 | 244 | 6.0 | 17.0 | 0.00 | 0.00 | 0.00 | 65 | 1014.8 |
| 20260901032029 | 64 | 193 | 8.0 | 16.0 | 0.00 | 0.00 | 0.00 | 64 | 1014.8 |